Regional Weather Roundup
Issued by NWS Jackson, KY

Home | Current Version | Previous Version | Text Only | Print | Product List | Glossary On
Versions: 1 2 3 4 5 6 7 8 9 10 11 12 13 14 15 16 17 18 19 20 21 22 23 24 25 26 27 28 29 30 31 32 33 34 35 36 37 38 39 40 41 42 43 44 45 46 47 48 49 50
377
ASUS43 KJKL 130510
RWRJKL

EAST KENTUCKY HOURLY WEATHER ROUNDUP
NATIONAL WEATHER SERVICE JACKSON KY
1200 AM EST SAT FEB 13 2016

NOTE: "FAIR" INDICATES FEW OR NO CLOUDS BELOW 12,000 FEET WITH
NO SIGNIFICANT WEATHER AND/OR OBSTRUCTIONS TO VISIBILITY.

* THESE REPORTS ARE NOT UNDER NWS QUALITY CONTROL AND MAY NOT
  REPORT WEATHER SUCH AS PRECIPITATION AND FOG.

KYZ079-080-083-085-087-088-110-112-115-119-120-130600
...EASTERN KENTUCKY...

CITY           SKY/WX    TMP DP  RH WIND       PRES   REMARKS
JACKSON        FLURRIES  23  15  71 NW9G24    30.21R WCI  13
LONDON         FLURRIES  26  15  63 NW12      30.25R WCI  16
SOMERSET*      CLOUDY    27  12  54 N9G20     30.32R WCI  17
MONTICELLO*    FLURRIES  26  16  65 NW15G28   30.32R WCI  14
WILLIAMSBURG*  CLOUDY    27  16  63 W12G18    30.26S WCI  16
MIDDLESBORO*   CLOUDY    28  18  65 NW14G20   30.24S WCI  17
HARLAN APT*    CLOUDY    28  18  64 W5G18     30.20R WCI  23
HAZARD APT*    CLOUDY    21  14  73 NW7       30.22R WCI  13
BLACK MTN*       N/A     14  14 100 N3          N/A
BIG SANDY*     CLOUDY    25  15  64 NW17G32   30.20R WCI  12
MOREHEAD APT*  MOCLDY    21   7  53 NW16      30.27R WCI   7
$$

KYZ035-036-041-042-044-050-067-078-099-130600
...CENTRAL KENTUCKY...

CITY           SKY/WX    TMP DP  RH WIND       PRES   REMARKS
MT STERLING*   MOCLDY    23  10  58 NW12      30.29R WCI  12
DANVILLE*      CLOUDY    27  16  63 NW10G18   30.30R WCI  17
RICHMOND*      CLOUDY    25  16  68 NW13G20   30.28R WCI  13
LEXINGTON      MOCLDY    23  10  57 NW15      30.29R WCI  10
FRANKFORT      CLOUDY    25   6  44 NW13G22   30.29R WCI  14
$$

KYZ091>093-OHZ055-061-077-WVZ005-015-034-035-042-130600
...SOUTHERN OHIO/WEST VIRGINIA...

CITY           SKY/WX    TMP DP  RH WIND       PRES   REMARKS
COVINGTON      CLOUDY    20   8  60 NW16      30.29R WCI   6
COLUMBUS       MOCLDY    16   7  67 NW14      30.21R WCI   2
DAYTON         MOCLDY    14   9  80 NW14      30.26R WCI  -1
WILMINGTON     CLEAR     15   5  64 NW15G22   30.24R WCI   0
HUNTINGTON     MOCLDY    22  15  75 NW9       30.22R WCI  12
CHARLESTON     LGT SNOW  21  15  78 NW16G29   30.17R WCI   7
PINEVILLE*     FLURRIES  26  15  63 MISG      30.13S
BECKLEY        LGT SNOW  18  13  80 NW16G32   30.01R VSB 1   WCI   3
$$

VAZ002-007-008-TNZ017-027-036-066-071-130600
...SOUTHWEST VIRGINIA/EAST TENNESSEE...

CITY           SKY/WX    TMP DP  RH WIND       PRES   REMARKS
BRISTOL        LGT SNOW  28  23  81 SW10      30.15S WCI  19
KNOXVILLE      FLURRIES  31  22  69 NW12G22   30.26R WCI  22
OAK RIDGE      CLOUDY    32  19  58 VRB7      30.28S WCI  26
CROSSVILLE     CLOUDY    27  15  61 NW12G24   30.24S WCI  17
NASHVILLE      PTCLDY    30  18  60 N12       30.38R WCI  20
$$

...KEY TO REMARKS...
VSB - VISIBILITY IN MILES
WCI - WIND CHILL INDEX
HX  - HEAT INDEX

$$




USA.gov is the U.S. government's official web portal to all federal, state and local government web resources and services.